Fort Yukon, AK

10:19 AM AKST on February 25, 2017 (GMT -0900)
Fort Yukon

Weather History for PFYU - January, 2013

Change the Weather History Date:

Sunday, January 20, 2013

  Actual Average Record
Temperature  
Mean Temperature -2 °F -  
Max Temperature 3 °F -6 °F 15 °F (2001)
Min Temperature -7 °F -18 °F -54 °F (2011)
Degree Days  
Heating Degree Days 67    
Moisture  
Dew Point -6 °F    
Average Humidity 73    
Maximum Humidity 92    
Minimum Humidity 60    
Precipitation  
Precipitation 0.00 in - - ()
Sea Level Pressure  
Sea Level Pressure 30.28 in    
Wind  
Wind Speed 13 mph (NE)    
Max Wind Speed 17 mph    
Max Gust Speed 23 mph    
Visibility 7 miles    
Events      
Averages and records for this station are not official NWS values.
T = Trace of Precipitation, MM = Missing Value Source: NWS Daily Summary

Daily Weather History Graph

Daily Weather History Graph

Search for Another Location

Airport or City:

Trip Planner

Search our weather history database for the weather conditions in past years. The results will help you decide how hot, cold, wet, or windy it might be!

Date:

Astronomy

Jan. 20, 2013 Rise Set
Actual Time 10:24 AM AKST 3:20 PM AKST
Civil Twilight 9:07 AM AKST 4:37 PM AKST
Nautical Twilight 7:57 AM AKST 5:47 PM AKST
Astronomical Twilight 6:54 AM AKST 6:50 PM AKST
Moon 10:36 AM AKST (1/20) 4:51 AM AKST (1/20)
Length of Visible Light 7h 29m
Length of Day
4h 56m
Waxing Gibbous, 67% of the Moon is Illuminated
Jan 20
Waxing Gibbous
Jan 26
Full
Feb 3
Last Quarter
Feb 9
New
Feb 17
First Quarter

Hourly Weather History & Observations

Time (AKST) Temp. Windchill Dew Point Humidity Pressure Visibility Wind Dir Wind Speed Gust Speed Precip Events Conditions
12:16 AM -7.6 °F -28.3 °F -14.8 °F 71% 30.45 in 10.0 mi ENE 13.8 mph - N/A   Overcast
12:36 AM -7.6 °F -29.1 °F -14.8 °F 71% 30.44 in 10.0 mi ENE 15.0 mph 20.7 mph N/A   Overcast
12:56 AM -7.6 °F -28.3 °F -14.8 °F 71% 30.43 in 10.0 mi NE 13.8 mph 21.9 mph N/A   Overcast
1:16 AM -5.8 °F -26.8 °F -14.8 °F 65% 30.43 in 10.0 mi NE 15.0 mph - N/A   Overcast
1:36 AM -5.8 °F -27.5 °F -14.8 °F 65% 30.43 in 10.0 mi NE 16.1 mph - N/A   Overcast
1:56 AM -5.8 °F -26.0 °F -13.0 °F 71% 30.43 in 10.0 mi ENE 13.8 mph 19.6 mph N/A   Overcast
2:16 AM -5.8 °F -23.4 °F -14.8 °F 65% 30.42 in 10.0 mi NE 10.4 mph - N/A   Overcast
2:36 AM -5.8 °F -22.4 °F - N/A% 30.42 in 10.0 mi ENE 9.2 mph - N/A   Overcast
3:16 AM -4.0 °F -22.1 °F -11.2 °F 71% 30.37 in 10.0 mi NE 11.5 mph 18.4 mph N/A   Overcast
3:36 AM -4.0 °F -23.7 °F - N/A% 30.38 in 10.0 mi ENE 13.8 mph 20.7 mph N/A   Overcast
3:56 AM -4.0 °F -21.2 °F -11.2 °F 71% 30.37 in 10.0 mi ENE 10.4 mph 19.6 mph N/A   Overcast
4:16 AM -4.0 °F -23.7 °F -13.0 °F 65% 30.36 in 10.0 mi ENE 13.8 mph 23.0 mph N/A   Overcast
4:36 AM -2.2 °F -20.7 °F -11.2 °F 66% 30.36 in 10.0 mi NE 12.7 mph 20.7 mph N/A   Overcast
4:56 AM -2.2 °F -21.5 °F -11.2 °F 66% 30.35 in 10.0 mi ENE 13.8 mph 21.9 mph N/A   Overcast
5:16 AM -2.2 °F -22.9 °F -11.2 °F 66% 30.34 in 10.0 mi NE 16.1 mph - N/A   Overcast
5:36 AM -2.2 °F -21.5 °F -11.2 °F 66% 30.33 in 10.0 mi ENE 13.8 mph 20.7 mph N/A   Overcast
5:56 AM -2.2 °F -18.0 °F -9.4 °F 71% 30.34 in 10.0 mi ENE 9.2 mph - N/A   Overcast
6:16 AM -2.2 °F -20.7 °F -11.2 °F 66% 30.33 in 10.0 mi ENE 12.7 mph 18.4 mph N/A   Overcast
6:36 AM -2.2 °F -21.5 °F -9.4 °F 71% 30.33 in 10.0 mi NE 13.8 mph 19.6 mph N/A   Overcast
6:56 AM -0.4 °F -19.9 °F -11.2 °F 60% 30.32 in 10.0 mi NE 15.0 mph - N/A   Overcast
7:16 AM -0.4 °F -19.2 °F -9.4 °F 66% 30.32 in 10.0 mi NE 13.8 mph 20.7 mph N/A   Overcast
7:36 AM -0.4 °F -18.4 °F -9.4 °F 66% 30.31 in 10.0 mi NE 12.7 mph 20.7 mph N/A   Overcast
7:56 AM -0.4 °F -18.4 °F -9.4 °F 66% 30.31 in 10.0 mi ENE 12.7 mph 23.0 mph N/A   Overcast
8:16 AM -0.4 °F -17.6 °F -9.4 °F 66% 30.31 in 10.0 mi ENE 11.5 mph 17.3 mph N/A   Overcast
8:36 AM -0.4 °F -18.4 °F -9.4 °F 66% 30.30 in 10.0 mi ENE 12.7 mph 19.6 mph N/A   Overcast
8:56 AM -0.4 °F -19.2 °F -9.4 °F 66% 30.30 in 10.0 mi ENE 13.8 mph 23.0 mph N/A   Overcast
9:16 AM -0.4 °F -21.2 °F -9.4 °F 66% 30.29 in 10.0 mi ENE 17.3 mph 23.0 mph N/A   Overcast
9:36 AM -0.4 °F -19.2 °F -9.4 °F 66% 30.28 in 10.0 mi ENE 13.8 mph 23.0 mph N/A   Overcast
9:56 AM 1.4 °F -16.9 °F -7.6 °F 66% 30.28 in 10.0 mi ENE 13.8 mph 21.9 mph N/A   Overcast
10:16 AM 1.4 °F -16.9 °F -7.6 °F 66% 30.28 in 10.0 mi ENE 13.8 mph 20.7 mph N/A   Overcast
10:36 AM 1.4 °F -17.6 °F -9.4 °F 61% 30.29 in 10.0 mi ENE 15.0 mph 20.7 mph N/A   Overcast
10:56 AM 1.4 °F -13.5 °F -7.6 °F 66% 30.29 in 10.0 mi ENE 9.2 mph - N/A   Overcast
11:16 AM 1.4 °F -13.5 °F -9.4 °F 61% 30.28 in 10.0 mi ENE 9.2 mph 16.1 mph N/A   Overcast
11:36 AM 1.4 °F -16.1 °F -9.4 °F 61% 30.28 in 10.0 mi ENE 12.7 mph 19.6 mph N/A   Overcast
11:56 AM 1.4 °F -15.3 °F -7.6 °F 66% 30.28 in 10.0 mi ENE 11.5 mph 16.1 mph N/A   Overcast
12:16 PM 1.4 °F -14.5 °F -9.4 °F 61% 30.28 in 10.0 mi ENE 10.4 mph 18.4 mph N/A   Overcast
12:36 PM 1.4 °F -15.3 °F -7.6 °F 66% 30.27 in 10.0 mi ENE 11.5 mph 18.4 mph N/A   Overcast
12:56 PM 1.4 °F -14.5 °F -7.6 °F 66% 30.27 in 3.0 mi ENE 10.4 mph - N/A   Overcast
1:16 PM 1.4 °F -17.6 °F -7.6 °F 66% 30.27 in 5.0 mi NE 15.0 mph 19.6 mph N/A   Overcast
1:36 PM 1.4 °F -16.1 °F -5.8 °F 72% 30.27 in 5.0 mi NE 12.7 mph 19.6 mph N/A   Overcast
1:56 PM 1.4 °F -16.9 °F -5.8 °F 72% 30.26 in 5.0 mi ENE 13.8 mph - N/A   Overcast
2:16 PM 3.2 °F -12.2 °F -5.8 °F 66% 30.25 in 10.0 mi ENE 10.4 mph - N/A   Overcast
2:36 PM 3.2 °F -12.2 °F -7.6 °F 61% 30.24 in 10.0 mi ENE 10.4 mph - N/A   Overcast
2:56 PM 3.2 °F -13.9 °F -5.8 °F 66% 30.23 in 10.0 mi ENE 12.7 mph 19.6 mph N/A   Overcast
3:16 PM 3.2 °F -14.6 °F -5.8 °F 66% 30.23 in 10.0 mi ENE 13.8 mph - N/A   Overcast
3:36 PM 3.2 °F -13.1 °F -5.8 °F 66% 30.23 in 5.0 mi ENE 11.5 mph 17.3 mph N/A   Overcast
3:56 PM 3.2 °F -12.2 °F -4.0 °F 72% 30.23 in 9.0 mi NE 10.4 mph - N/A   Overcast
4:16 PM 3.2 °F -15.9 °F -4.0 °F 72% 30.22 in 3.0 mi NE 16.1 mph - N/A   Overcast
4:36 PM 3.2 °F -14.6 °F -2.2 °F 78% 30.22 in 3.0 mi NE 13.8 mph 18.4 mph N/A   Overcast
4:56 PM 3.2 °F -13.9 °F -2.2 °F 78% 30.22 in 3.0 mi NE 12.7 mph 17.3 mph N/A   Overcast
5:16 PM 3.2 °F -14.6 °F -2.2 °F 78% 30.22 in 2.5 mi ENE 13.8 mph 17.3 mph N/A   Overcast
5:36 PM 3.2 °F -13.9 °F -0.4 °F 85% 30.21 in 2.0 mi ENE 12.7 mph 16.1 mph N/A   Overcast
5:56 PM 3.2 °F -13.9 °F -2.2 °F 78% 30.21 in 2.0 mi NE 12.7 mph 17.3 mph N/A   Overcast
6:16 PM 3.2 °F -15.9 °F -0.4 °F 85% 30.21 in 1.2 mi NE 16.1 mph - N/A   Overcast
6:36 PM 3.2 °F -13.9 °F -0.4 °F 85% 30.21 in 1.0 mi NE 12.7 mph 19.6 mph N/A   Overcast
6:56 PM 3.2 °F -13.9 °F -0.4 °F 85% 30.21 in 1.0 mi NE 12.7 mph - N/A   Overcast
7:16 PM 3.2 °F -14.6 °F -0.4 °F 85% 30.21 in 1.2 mi NE 13.8 mph - N/A   Overcast
7:36 PM 3.2 °F -14.6 °F -0.4 °F 85% 30.20 in 1.5 mi NE 13.8 mph - N/A   Overcast
7:56 PM 3.2 °F -14.6 °F 1.4 °F 92% 30.20 in 1.5 mi NE 13.8 mph 19.6 mph N/A   Overcast
8:16 PM 3.2 °F -13.9 °F -0.4 °F 85% 30.20 in 1.2 mi NE 12.7 mph - N/A   Overcast
8:36 PM 3.2 °F -13.1 °F 1.4 °F 92% 30.20 in 1.8 mi NE 11.5 mph 18.4 mph N/A   Overcast
8:56 PM 3.2 °F -11.3 °F 1.4 °F 92% 30.20 in 2.0 mi ENE 9.2 mph 18.4 mph N/A   Overcast
9:16 PM 3.2 °F -12.2 °F 1.4 °F 92% 30.20 in 1.8 mi ENE 10.4 mph - N/A   Overcast
9:36 PM 3.2 °F -15.3 °F 1.4 °F 92% 30.20 in 1.8 mi NE 15.0 mph - N/A   Overcast
9:56 PM 3.2 °F -13.1 °F 1.4 °F 92% 30.19 in 1.8 mi NE 11.5 mph 18.4 mph N/A   Overcast
10:16 PM 3.2 °F -12.2 °F 1.4 °F 92% 30.20 in 1.8 mi ENE 10.4 mph - N/A   Overcast
10:36 PM 3.2 °F -13.1 °F 1.4 °F 92% 30.20 in 2.0 mi ENE 11.5 mph 17.3 mph N/A   Overcast
10:56 PM 3.2 °F -13.1 °F 1.4 °F 92% 30.20 in 2.0 mi ENE 11.5 mph 16.1 mph N/A   Overcast
11:16 PM 3.2 °F -13.1 °F 1.4 °F 92% 30.20 in 1.8 mi NE 11.5 mph 17.3 mph N/A   Overcast
11:36 PM 3.2 °F -12.2 °F 1.4 °F 92% 30.20 in 2.5 mi NE 10.4 mph - N/A   Overcast
11:56 PM 3.2 °F -13.9 °F -0.4 °F 85% 30.21 in 2.0 mi NE 12.7 mph - N/A   Overcast